Prescott, AZ

8:56 AM MST on June 27, 2017 (GMT -0700)
Love

Weather History for KPRC - October, 2013

Change the Weather History Date:

Tuesday, October 1, 2013

  Actual Average Record
Temperature  
Mean Temperature 61 °F 62 °F  
Max Temperature 79 °F 77 °F 91 °F (1980)
Min Temperature 43 °F 47 °F 33 °F (1965)
Degree Days  
Heating Degree Days 4    
Month to date heating degree days 4  
Since 1 July heating degree days 54  
Cooling Degree Days 0    
Month to date cooling degree days 0  
Year to date cooling degree days 1127  
Growing Degree Days 12 (Base 50)    
Moisture  
Dew Point 28 °F    
Average Humidity 32    
Maximum Humidity 53    
Minimum Humidity 13    
Precipitation  
Precipitation 0.00 in 0.04 in 0.54 in (1990)
Month to date precipitation 0.00 0.04  
Year to date precipitation 10.70 11.21  
Sea Level Pressure  
Sea Level Pressure 29.92 in    
Wind  
Wind Speed 6 mph (SSW)    
Max Wind Speed 16 mph    
Max Gust Speed 130 mph    
Visibility 10 miles    
Events      
T = Trace of Precipitation, MM = Missing Value Source: NWS Daily Summary

Daily Weather History Graph

Daily Weather History Graph

Search for Another Location

Airport or City:

Trip Planner

Search our weather history database for the weather conditions in past years. The results will help you decide how hot, cold, wet, or windy it might be!

Date:

Astronomy

Oct. 01, 2013 Rise Set
Actual Time 6:24 AM MST 6:13 PM MST
Civil Twilight 5:59 AM MST 6:38 PM MST
Nautical Twilight 5:30 AM MST 7:07 PM MST
Astronomical Twilight 5:00 AM MST 7:36 PM MST
Moon 3:09 AM MST (10/1) 4:13 PM MST (10/1)
Length of Visible Light 12h 38m
Length of Day
11h 48m
Waning Crescent, 11% of the Moon is Illuminated
Oct 1
Waning Crescent
Oct 4
New
Oct 11
First Quarter
Oct 18
Full
Oct 26
Last Quarter

Hourly Weather History & Observations

Time (MST) Temp. Windchill Dew Point Humidity Pressure Visibility Wind Dir Wind Speed Gust Speed Precip Events Conditions
12:53 AM 50.0 °F - 34.0 °F 54% 29.89 in 10.0 mi South 8.1 mph - N/A   Clear
1:53 AM 50.0 °F - 28.0 °F 43% 29.90 in 10.0 mi SSW 9.2 mph - N/A   Clear
2:53 AM 50.0 °F - 28.0 °F 43% 29.89 in 10.0 mi South 9.2 mph - N/A   Clear
3:53 AM 46.0 °F - 30.0 °F 54% 29.90 in 10.0 mi Calm Calm - N/A   Clear
4:53 AM 48.9 °F - 27.0 °F 43% 29.91 in 10.0 mi SW 6.9 mph - N/A   Clear
5:53 AM 44.1 °F 42.5 °F 28.0 °F 53% 29.94 in 10.0 mi South 3.5 mph - N/A   Clear
6:53 AM 46.0 °F 43.9 °F 30.0 °F 54% 29.97 in 10.0 mi South 4.6 mph - N/A   Clear
7:53 AM 55.9 °F - 32.0 °F 40% 29.97 in 10.0 mi Calm Calm - N/A   Clear
8:53 AM 64.9 °F - 30.0 °F 27% 29.96 in 10.0 mi Calm Calm - N/A   Clear
9:53 AM 71.1 °F - 30.9 °F 23% 29.95 in 10.0 mi Variable 4.6 mph - N/A   Clear
10:53 AM 75.0 °F - 25.0 °F 16% 29.94 in 10.0 mi South 9.2 mph 18.4 mph N/A   Clear
11:53 AM 75.9 °F - 24.1 °F 15% 29.93 in 10.0 mi SSE 9.2 mph - N/A   Clear
12:53 PM 75.9 °F - 26.1 °F 16% 29.92 in 10.0 mi Variable 5.8 mph 18.4 mph N/A   Clear
1:53 PM 79.0 °F - 26.1 °F 14% 29.88 in 10.0 mi WSW 9.2 mph - N/A   Clear
2:53 PM 79.0 °F - 25.0 °F 14% 29.88 in 10.0 mi SSW 9.2 mph 17.3 mph N/A   Clear
3:53 PM 77.0 °F - 26.1 °F 15% 29.88 in 10.0 mi WSW 10.4 mph - N/A   Clear
4:53 PM 75.0 °F - 26.1 °F 16% 29.88 in 10.0 mi SW 9.2 mph - N/A   Clear
5:53 PM 71.1 °F - 28.0 °F 20% 29.91 in 10.0 mi SSW 9.2 mph - N/A   Clear
6:53 PM 64.9 °F - 28.0 °F 25% 29.93 in 10.0 mi Calm Calm - N/A   Clear
7:53 PM 64.0 °F - 28.0 °F 26% 29.92 in 10.0 mi SSE 6.9 mph - N/A   Clear
8:53 PM 63.0 °F - 28.0 °F 27% 29.91 in 10.0 mi Calm Calm - N/A   Clear
9:53 PM 53.1 °F - 34.0 °F 48% 29.93 in 10.0 mi SSW 4.6 mph - N/A   Clear
11:53 PM 50.0 °F - 32.0 °F 50% 29.92 in 10.0 mi SSW 4.6 mph - N/A   Clear